Berlin Schoenefeld, Germany

7:08 AM CEST on October 19, 2017 (GMT +0200)
Schonefeld

Weather History for EDDB - October, 2017

Change the Weather History Date:

Friday, October 13, 2017

  Actual Average Record
Temperature  
Mean Temperature 53 °F -  
Max Temperature 61 °F - - ()
Min Temperature 45 °F - - ()
Degree Days  
Heating Degree Days 12    
Growing Degree Days 3 (Base 50)    
Moisture  
Dew Point 47 °F    
Average Humidity 79    
Maximum Humidity 94    
Minimum Humidity 55    
Precipitation  
Precipitation 0.00 in - - ()
Sea Level Pressure  
Sea Level Pressure 30.21 in    
Wind  
Wind Speed 10 mph ()    
Max Wind Speed 16 mph    
Max Gust Speed -    
Visibility 6.2 miles    
Events      
T = Trace of Precipitation, MM = Missing Value Source: Averaged Metar Reports

Daily Weather History Graph

Daily Weather History Graph

Search for Another Location

Airport or City:

Trip Planner

Search our weather history database for the weather conditions in past years. The results will help you decide how hot, cold, wet, or windy it might be!

Date:

Astronomy

Oct. 13, 2017 Rise Set
Actual Time 7:27 AM CEST 6:15 PM CEST
Civil Twilight 6:53 AM CEST 6:49 PM CEST
Nautical Twilight 6:14 AM CEST 7:29 PM CEST
Astronomical Twilight 5:34 AM CEST 8:08 PM CEST
Moon No Moon Rise 3:36 PM CEST (10/13)
Length of Visible Light 11h 56m
Length of Day
10h 47m
Last Quarter, 40% of the Moon is Illuminated
Oct 13
Last Quarter
Oct 19
New
Oct 28
First Quarter
Nov 4
Full
Nov 10
Last Quarter

Hourly Weather History & Observations

Time (CEST) Temp. Windchill Dew Point Humidity Pressure Visibility Wind Dir Wind Speed Gust Speed Precip Events Conditions
12:20 AM 51.8 °F - 44.6 °F 76% 30.15 in - West 16.1 mph - N/A   Clear
12:50 AM 51.8 °F - 44.6 °F 76% 30.15 in - West 15.0 mph - N/A   Clear
1:20 AM 50.0 °F - 44.6 °F 82% 30.15 in - West 13.8 mph - N/A   Clear
1:50 AM 50.0 °F - 42.8 °F 76% 30.15 in - WSW 9.2 mph - N/A   Clear
2:00 AM 49 °F - 43 °F 73% 30.17 in 31 mi West 11.2 mph - -  
2:20 AM 50.0 °F - 44.6 °F 82% 30.15 in - WSW 10.4 mph - N/A   Clear
2:50 AM 50.0 °F - 44.6 °F 82% 30.15 in - WSW 10.4 mph - N/A   Clear
3:20 AM 50.0 °F - 44.6 °F 82% 30.15 in - WSW 11.5 mph - N/A   Clear
3:50 AM 50.0 °F - 44.6 °F 82% 30.15 in - WSW 10.4 mph - N/A   Clear
4:20 AM 51.8 °F - 44.6 °F 76% 30.18 in - WSW 9.2 mph - N/A   Clear
4:50 AM 51.8 °F - 44.6 °F 76% 30.18 in - WSW 9.2 mph - N/A   Clear
5:20 AM 50.0 °F - 46.4 °F 87% 30.18 in - WSW 9.2 mph - N/A   Clear
5:50 AM 48.2 °F - 44.6 °F 87% 30.18 in - WSW 8.1 mph - N/A   Clear
6:20 AM 48.2 °F - 44.6 °F 87% 30.18 in - WSW 6.9 mph - N/A   Clear
6:50 AM 46.4 °F 42.4 °F 44.6 °F 93% 30.18 in - WSW 8.1 mph - N/A   Clear
7:20 AM 44.6 °F 40.7 °F 42.8 °F 93% 30.21 in 6.2 mi WSW 6.9 mph - N/A   Mostly Cloudy
7:50 AM 44.6 °F 40.7 °F 42.8 °F 93% 30.21 in 6.2 mi WSW 6.9 mph - N/A   Mostly Cloudy
8:00 AM 46 °F - 43 °F 84% 30.22 in 25 mi WSW 8.9 mph - -   Scattered Clouds
8:20 AM 46.4 °F 42.4 °F 44.6 °F 93% 30.21 in 6.2 mi WSW 8.1 mph - N/A   Mostly Cloudy
8:50 AM 50.0 °F - 46.4 °F 87% 30.21 in 6.2 mi WSW 9.2 mph - N/A   Mostly Cloudy
9:20 AM 50.0 °F - 46.4 °F 87% 30.21 in 6.2 mi WSW 11.5 mph - N/A   Mostly Cloudy
9:50 AM 51.8 °F - 46.4 °F 82% 30.21 in 6.2 mi WSW 12.7 mph - N/A   Mostly Cloudy
10:20 AM 55.4 °F - 48.2 °F 77% 30.21 in 6.2 mi West 12.7 mph - N/A   Mostly Cloudy
10:50 AM 55.4 °F - 48.2 °F 77% 30.21 in 6.2 mi West 13.8 mph - N/A   Mostly Cloudy
11:20 AM 57.2 °F - 50.0 °F 77% 30.21 in 6.2 mi West 12.7 mph - N/A   Mostly Cloudy
11:50 AM 57.2 °F - 50.0 °F 77% 30.21 in 6.2 mi West 12.7 mph - N/A   Mostly Cloudy
12:20 PM 59.0 °F - 51.8 °F 77% 30.24 in 6.2 mi West 13.8 mph - N/A   Mostly Cloudy
12:50 PM 59.0 °F - 48.2 °F 67% 30.21 in 6.2 mi West 13.8 mph - N/A   Mostly Cloudy
1:20 PM 59.0 °F - 48.2 °F 67% 30.21 in 6.2 mi West 13.8 mph - N/A   Mostly Cloudy
1:50 PM 59.0 °F - 46.4 °F 63% 30.21 in 6.2 mi West 11.5 mph - N/A   Mostly Cloudy
2:00 PM 59 °F - 47 °F 55% 30.24 in 28 mi West 13.4 mph - -   Mostly Cloudy
2:20 PM 59.0 °F - 48.2 °F 67% 30.24 in 6.2 mi West 16.1 mph - N/A   Mostly Cloudy
2:50 PM 59.0 °F - 46.4 °F 63% 30.21 in 6.2 mi West 11.5 mph - N/A   Mostly Cloudy
3:20 PM 59.0 °F - 48.2 °F 67% 30.21 in 6.2 mi West 8.1 mph - N/A   Mostly Cloudy
3:50 PM 60.8 °F - 48.2 °F 63% 30.21 in 6.2 mi West 10.4 mph - N/A   Mostly Cloudy
4:20 PM 59.0 °F - 48.2 °F 67% 30.24 in 6.2 mi West 11.5 mph - N/A   Mostly Cloudy
4:50 PM 60.8 °F - 48.2 °F 63% 30.21 in 6.2 mi WSW 8.1 mph - N/A   Mostly Cloudy
5:20 PM 59.0 °F - 50.0 °F 72% 30.24 in 6.2 mi West 6.9 mph - N/A   Mostly Cloudy
5:50 PM 59.0 °F - 50.0 °F 72% 30.24 in 6.2 mi West 5.8 mph - N/A   Mostly Cloudy
6:20 PM 55.4 °F - 50.0 °F 82% 30.24 in 6.2 mi WSW 5.8 mph - N/A   Mostly Cloudy
6:50 PM 53.6 °F - 48.2 °F 82% 30.24 in 6.2 mi WSW 6.9 mph - N/A   Mostly Cloudy
7:20 PM 53.6 °F - 48.2 °F 82% 30.24 in 6.2 mi West 6.9 mph - N/A   Mostly Cloudy
7:50 PM 51.8 °F - 46.4 °F 82% 30.24 in 6.2 mi WSW 5.8 mph - N/A   Mostly Cloudy
8:00 PM 51 °F - 46 °F 77% 30.26 in 22 mi West 6.7 mph - -   Scattered Clouds
8:20 PM 51.8 °F - 46.4 °F 82% 30.24 in 6.2 mi SW 5.8 mph - N/A   Scattered Clouds
8:50 PM 51.8 °F - 46.4 °F 82% 30.24 in 6.2 mi SW 4.6 mph - N/A   Scattered Clouds
9:20 PM 50.0 °F - 46.4 °F 87% 30.24 in - SW 3.5 mph - N/A   Clear
9:50 PM 50.0 °F - 46.4 °F 87% 30.24 in - SW 3.5 mph - N/A   Clear
10:20 PM 48.2 °F - 46.4 °F 93% 30.24 in - South 2.3 mph - N/A   Clear
10:50 PM 50.0 °F - 46.4 °F 87% 30.24 in 6.2 mi SSW 3.5 mph - N/A   Scattered Clouds
11:20 PM 51.8 °F - 48.2 °F 88% 30.24 in 6.2 mi SSW 2.3 mph - N/A   Mostly Cloudy
11:50 PM 51.8 °F - 50.0 °F 94% 30.24 in 6.2 mi South 3.5 mph - N/A   Mostly Cloudy